{"data":{"norad_id":53856,"intl_designator":"2022-114AQ","name":"STARLINK-4795","alt_names":[],"object_type":"PAYLOAD","status":"ACTIVE","operator":null,"country":"US","launch_date":"2022-09-19","launch_site_code":"AFETR","launch_vehicle":null,"mission":null,"orbit_class":"UNKNOWN","rcs_meters":null,"size_class":null,"mass_kg":null,"dimensions":null,"purposes":["comms"],"wikipedia_slug":null,"has_3d_model":false,"image_url":null,"decayed_at":null,"tle_current":{"epoch":"2026-05-25T04:00:03.998880Z","epoch_age_seconds":57753,"freshness":"FRESH","line1":"1 53856U 22114AQ  26145.16671295  .00645365  00000+0  96020-2 0  9999","line2":"2 53856  53.2164 293.3365 0000904  67.7797 298.1452 15.52319727  5881","mean_motion":15.52319727,"eccentricity":9.04e-5,"inclination_deg":53.2164,"raan_deg":293.3365,"arg_perigee_deg":67.7797,"mean_anomaly_deg":298.1452,"bstar":0.009602,"rev_number":588,"period_min":92.764394792749,"perigee_km":409.34141694658,"apogee_km":410.56870399111,"semimajor_km":6788.0920604688,"source":"CELESTRAK","updated_at":"2026-05-25T13:38:17.577698Z"}}}